CW9804 Weather Reports


Display with metric or nautical units.
time (UTC)temp
F
wind
direction
speed
MPH
gust
MPH
rain 1hr
in
rain 24hr
in
rain mn
in
humidity
%
barometer
mb
20260831194913 76 217 2.0 5.0 0.00 0.00 0.00 60 1016.5
20260831193412 76 245 3.0 4.0 0.00 0.00 0.00 60 1016.3
20260831191912 75 188 4.0 7.0 0.00 0.00 0.00 62 1015.9
20260831190412 72 257 3.0 4.0 0.00 0.00 0.00 67 1015.2
20260831184912 73 233 1.0 2.0 0.00 0.00 0.00 67 1014.8
20260831183412 73 233 1.0 3.0 0.00 0.00 0.00 64 1014.1
20260831181912 74 233 2.0 3.0 0.00 0.00 0.00 62 1013.9
20260831180411 78 233 0.0 3.0 0.00 0.00 0.00 58 1013.9
20260831174911 78 144 2.0 7.0 0.00 0.00 0.00 55 1013.5
20260831173411 78 214 3.0 4.0 0.00 0.00 0.00 55 1013.4
20260831171911 80 198 1.0 3.0 0.00 0.00 0.00 53 1013.5
20260831170411 83 214 3.0 4.0 0.00 0.00 0.00 50 1013.6
20260831164912 86 116 1.0 3.0 0.00 0.00 0.00 47 1013.8
20260831163411 89 92 0.0 2.0 0.00 0.00 0.00 46 1014.2
20260831161911 89 92 0.0 3.0 0.00 0.00 0.00 41 1014.2
20260831160411 89 79 1.0 5.0 0.00 0.00 0.00 39 1014.3
20260831154911 90 85 1.0 4.0 0.00 0.00 0.00 41 1014.4
20260831153411 90 59 3.0 4.0 0.00 0.00 0.00 38 1014.3
20260831151911 89 75 1.0 4.0 0.00 0.00 0.00 40 1014.4
20260831150410 90 161 0.0 2.0 0.00 0.00 0.00 40 1014.6
20260831144910 90 70 1.0 5.0 0.00 0.00 0.00 41 1014.8
20260831143410 90 90 3.0 6.0 0.00 0.00 0.00 39 1014.9
20260831141910 89 74 3.0 7.0 0.00 0.00 0.00 43 1014.8
20260831140410 89 74 2.0 5.0 0.00 0.00 0.00 41 1014.9
20260831134913 89 63 1.0 6.0 0.00 0.00 0.00 40 1015.0
20260831133413 88 56 2.0 9.0 0.00 0.00 0.00 45 1015.1
20260831131913 88 98 3.0 6.0 0.00 0.00 0.00 43 1015.3
20260831130413 88 51 2.0 5.0 0.00 0.00 0.00 43 1015.3
20260831124912 88 87 4.0 8.0 0.00 0.00 0.00 46 1015.6
20260831123412 88 62 0.0 2.0 0.00 0.00 0.00 45 1015.7
20260831121912 88 58 2.0 3.0 0.00 0.00 0.00 43 1015.8
20260831120412 87 65 2.0 3.0 0.00 0.00 0.00 44 1015.7
20260831114912 87 78 3.0 6.0 0.00 0.00 0.00 45 1015.8
20260831113412 86 350 1.0 3.0 0.00 0.00 0.00 47 1016.0
20260831111911 86 311 2.0 6.0 0.00 0.00 0.00 47 1016.0
20260831110411 85 45 4.0 7.0 0.00 0.00 0.00 49 1016.0
20260831104911 85 225 1.0 6.0 0.00 0.00 0.00 53 1016.2
20260831103411 84 293 2.0 5.0 0.00 0.00 0.00 52 1016.3
20260831101911 82 287 3.0 4.0 0.00 0.00 0.00 57 1016.6
20260831100411 81 285 1.0 4.0 0.00 0.00 0.00 56 1016.6
20260831094910 80 300 2.0 4.0 0.00 0.00 0.00 62 1016.8
20260831093410 79 278 0.0 3.0 0.00 0.00 0.00 64 1016.9
20260831091910 78 306 2.0 4.0 0.00 0.00 0.00 67 1017.0
20260831090410 77 15 2.0 3.0 0.00 0.00 0.00 66 1016.8
20260831084910 76 325 2.0 3.0 0.00 0.00 0.00 68 1016.7
20260831083409 75 327 0.0 3.0 0.00 0.00 0.00 68 1016.6
20260831081914 74 305 1.0 2.0 0.00 0.00 0.00 70 1016.5
20260831074914 72 313 3.0 5.0 0.00 0.00 0.00 74 1016.4
20260831073414 71 279 2.0 3.0 0.00 0.00 0.00 73 1016.1
20260831071914 70 248 2.0 3.0 0.00 0.00 0.00 76 1016.2
20260831070413 68 183 2.0 3.0 0.00 0.00 0.00 80 1016.1
20260831064913 67 176 0.0 2.0 0.00 0.00 0.00 82 1016.1
20260831063413 66 175 0.0 2.0 0.00 0.00 0.00 83 1016.2
20260831061913 65 175 0.0 2.0 0.00 0.00 0.00 85 1016.2
20260831060413 64 175 0.0 0.0 0.00 0.00 0.00 88 1016.2
20260831054913 62 175 0.0 0.0 0.00 0.00 0.00 90 1016.0
20260831053412 61 175 0.0 0.0 0.00 0.00 0.00 91 1016.0
20260831051912 61 175 0.0 0.0 0.00 0.00 0.00 90 1016.1
20260831050412 61 174 0.0 0.0 0.00 0.00 0.00 90 1016.0
20260831044912 61 174 1.0 2.0 0.00 0.00 0.00 89 1015.9
20260831043412 60 174 0.0 2.0 0.00 0.00 0.00 91 1016.1
20260831041912 60 174 0.0 0.0 0.00 0.00 0.00 91 1016.1
20260831040412 60 174 0.0 0.0 0.00 0.00 0.00 90 1016.1
20260831034912 60 174 0.0 0.0 0.00 0.00 0.00 90 1016.1
20260831033412 61 174 0.0 0.0 0.00 0.00 0.00 89 1016.1
20260831031912 62 174 0.0 0.0 0.00 0.00 0.00 88 1016.1
20260831030412 62 174 0.0 0.0 0.00 0.00 0.00 88 1016.2
20260831024913 62 174 0.0 1.0 0.00 0.00 0.00 87 1016.2
20260831023412 63 174 0.0 1.0 0.00 0.00 0.00 86 1016.2
20260831021912 63 174 0.0 3.0 0.00 0.00 0.00 86 1016.4
20260831020412 63 196 0.0 3.0 0.00 0.00 0.00 86 1016.5
20260831014912 63 196 0.0 1.0 0.00 0.00 0.00 86 1016.5
20260831013412 63 196 0.0 0.0 0.00 0.00 0.00 86 1016.6
20260831011912 63 196 0.0 0.0 0.00 0.00 0.00 87 1016.7
20260831010412 63 196 0.0 0.0 0.00 0.00 0.00 86 1016.7
20260831004912 64 196 0.0 0.0 0.00 0.00 0.00 85 1016.9
20260831003412 64 196 0.0 0.0 0.00 0.00 0.00 85 1017.0
20260831001912 64 196 0.0 0.0 0.00 0.00 0.00 85 1017.0
20260831000412 64 196 0.0 0.0 0.00 0.00 0.00 84 1017.1
20260830234911 65 196 0.0 0.0 0.00 0.00 0.00 83 1017.1
20260830233411 64 196 0.0 0.0 0.00 0.00 0.00 84 1017.2
20260830231912 64 196 0.0 0.0 0.00 0.00 0.00 84 1017.2
20260830230411 65 196 0.0 0.0 0.00 0.00 0.00 83 1017.2
20260830224914 65 196 0.0 0.0 0.00 0.00 0.00 84 1017.3
20260830223414 65 196 0.0 0.0 0.00 0.00 0.00 83 1017.4
20260830221914 66 196 0.0 0.0 0.00 0.00 0.00 81 1017.4
20260830220413 66 196 0.0 0.0 0.00 0.00 0.00 81 1017.3
20260830214913 67 196 0.0 0.0 0.00 0.00 0.00 80 1017.6
20260830213413 67 196 0.0 0.0 0.00 0.00 0.00 80 1017.6
20260830211913 66 196 0.0 0.0 0.00 0.00 0.00 81 1017.4
20260830210413 67 196 0.0 0.0 0.00 0.00 0.00 79 1017.4
20260830204912 68 196 0.0 0.0 0.00 0.00 0.00 78 1017.3
20260830203412 68 196 1.0 2.0 0.00 0.00 0.00 78 1017.3
20260830201912 68 196 0.0 0.0 0.00 0.00 0.00 79 1017.2
20260830200412 69 196 0.0 0.0 0.00 0.00 0.00 77 1017.2